Location: Saint-Hippolyte
(43.6394°N, 4.7559°E)
Time: 15:58:42
(UTC+00:00)

Cosmos 968 Rocket - Pass Details

Date: 24 October 2020
Orbit: 741 x 770 km, 74.0° (Epoch: 23 November)

Event Time Altitude Azimuth Distance (km) Brightness Sun altitude
Rises 18:17:52 0° 344° (NNW) 3,242 7.0 -17.8°
Reaches altitude 10° 18:20:21 10° 350° (N) 2,308 6.1 -18.3°
Maximum altitude 18:25:25 48° 64° (ENE) 989 3.7 -19.2°
Enters shadow 18:26:56 37° 110° (ESE) 1,168 3.9 -19.5°
